This demonstration page uses our WeatherBlox Daily Observations layout. Learn more.

Left ArrowRight Arrow

39.92423, -83.80882

Hourly Observations for January 27, 2015

Temp ( °F °C ) Dew Point ( °F °C ) Humidity (%) Winds ( mph kmh ) Pressure ( in mb ) Visibility ( mi km ) Precip ( " mm )
12:56 am 00:56 Cloudy with Mist and Fog 9 -12.7 7 -13.8 92 92 Calm 29.99 1016 6 10 0.00 0.00
1:56 am 01:56 Cloudy 11 -11.6 8 -13.3 87 87 Calm 29.98 1015 7 11 0.00 0.00
2:56 am 02:56 Mostly Cloudy 11 -11.6 9 -12.7 92 92 Calm 29.99 1016 7 11 0.00 0.00
3:56 am 03:56 Clear 12 -11.1 10 -12.2 92 92 Calm 29.98 1015 7 11 0.00 0.00
4:56 am 04:56 Clear 11 -11.6 9 -12.7 92 92 S 3 6 29.99 1016 7 11 0.00 0.00
5:56 am 05:56 Clear with Mist and Fog 10 -12.2 7 -13.8 88 88 Calm 30.01 1016 6 10 0.00 0.00
6:56 am 06:56 Clear with Mist and Fog 9 -12.7 6 -14.4 87 87 SSE 3 6 30.05 1018 6 10 0.00 0.00
7:56 am 07:56 Sunny with Mist and Fog 9 -12.7 6 -14.4 87 87 SSE 3 6 30.08 1019 5 8 0.00 0.00
8:56 am 08:56 Sunny with Mist and Fog 12 -11.1 10 -12.2 92 92 Calm 30.10 1019 5 8 0.00 0.00
9:56 am 09:56 Mostly Cloudy with Mist and Fog 14 -10 12 -11.1 92 92 SSW 6 9 30.13 1020 5 8 0.00 0.00
10:56 am 10:56 Sunny 18 -7.7 16 -8.8 92 92 ESE 7 11 30.14 1021 7 11 0.00 0.00
11:33 am 11:33 Mostly Cloudy 19 -7 12 -11 73 73 VRB 6 9 30.18 1022 8 13 0.00 0.00
11:56 am 11:56 Mostly Cloudy 20 -6.6 14 -10 77 77 NW 8 13 30.15 1021 8 13 0.00 0.00
12:28 pm 12:28 Partly Cloudy 21 -6 14 -10 74 74 ENE 8 13 30.18 1022 9 14 0.00 0.00
12:46 pm 12:46 Mostly Cloudy 21 -6 14 -10 74 74 VRB 7 11 30.18 1022 8 13 0.00 0.00
12:56 pm 12:56 Cloudy 22 -5.5 14 -10 71 71 NNE 8 13 30.14 1021 9 14 0.00 0.00
1:18 pm 13:18 Partly Cloudy 23 -5 14 -10 68 68 NNE 8 13 30.18 1022 9 14 0.00 0.00
1:56 pm 13:56 Mostly Sunny 23 -5 13 -10.5 66 66 VRB 7 11 30.13 1020 9 14 0.00 0.00
2:10 pm 14:10 Mostly Cloudy 25 -4 12 -11 59 59 VRB 6 9 30.18 1022 8 13 0.00 0.00
2:56 pm 14:56 Partly Cloudy 24 -4.4 13 -10.5 63 63 VRB 7 11 30.14 1021 8 13 0.00 0.00
3:56 pm 15:56 Sunny 23 -5 13 -10.5 66 66 W 8 13 30.16 1021 9 14 0.00 0.00
4:56 pm 16:56 Sunny 21 -6.1 13 -10.5 71 71 NW 12 19 30.19 1023 9 14 0.00 0.00
5:56 pm 17:56 Clear 18 -7.7 11 -11.6 74 74 VRB 7 11 30.22 1023 9 14 0.00 0.00
6:56 pm 18:56 Clear 15 -9.4 9 -12.7 77 77 SSW 6 9 30.24 1024 9 14 0.00 0.00
7:56 pm 19:56 Clear 14 -10 10 -12.2 84 84 S 3 6 30.27 1025 8 13 0.00 0.00
8:56 pm 20:56 Clear 14 -10 10 -12.2 84 84 S 5 7 30.27 1025 8 13 0.00 0.00
9:56 pm 21:56 Clear with Mist and Fog 9 -12.7 7 -13.8 92 92 S 5 7 30.28 1025 6 10 0.00 0.00
10:56 pm 22:56 Clear with Mist and Fog 10 -12.2 7 -13.8 88 88 S 3 6 30.28 1026 5 8 0.00 0.00
11:56 pm 23:56 Clear with Mist and Fog 8 -13.3 5 -15 87 87 S 3 6 30.29 1026 3 5 0.00 0.00

Powered by AerisWeather